Theta_e
310 307 305 304 303 303 304 306 308 309 309 308 309 312 314 315 315 319 315 317 318 318 319 319 319 316 315 318 318 316 321 322 323 317 316 314 317 316 314 315 315 322 328 330 335
317 307 304 303 303 303 304 306 309 309 309 309 309 312 314 315 316 317 316 317 317 319 319 319 318 315 313 315 316 316 314 317 318 315 315 315 317 317 317 315 316 316 315 326 333
316 309 305 303 303 303 304 307 309 309 308 309 310 312 314 315 318 318 316 318 319 319 319 320 319 318 316 315 315 316 315 315 317 317 315 317 317 317 317 318 316 315 314 316 326
307 306 305 303 302 303 303 308 309 309 309 309 310 312 315 319 319 318 316 317 319 319 319 317 316 317 318 318 315 316 315 314 316 316 317 318 317 318 317 316 313 312 312 312 312
308 307 305 304 302 302 303 306 309 309 311 312 310 312 318 318 317 318 317 318 319 319 318 316 317 316 318 317 317 316 317 317 316 317 316 317 318 317 317 314 314 314 314 314 314
310 308 307 305 303 302 303 305 309 311 314 313 311 312 318 317 320 318 317 318 319 319 318 316 316 315 317 317 317 316 317 317 316 317 317 318 318 317 316 314 315 314 313 314 314
309 310 308 307 304 302 303 306 310 313 314 311 310 316 321 315 318 316 317 318 318 318 317 318 318 317 317 318 317 318 319 314 316 315 319 317 319 319 316 315 315 314 313 313 314
310 308 308 307 306 303 302 304 311 315 315 312 313 318 313 317 317 316 317 318 318 319 319 319 318 317 318 317 311 313 312 313 313 316 318 318 320 317 316 316 316 314 313 314 314
313 312 308 308 306 304 302 305 312 316 316 317 317 316 313 316 317 318 318 318 318 318 319 318 317 316 315 310 308 310 313 314 313 313 318 318 318 317 316 316 316 314 314 315 316
320 314 311 307 307 304 302 309 314 313 315 319 322 318 316 316 317 318 318 318 317 316 316 317 312 314 311 308 310 312 314 313 313 313 318 318 317 317 317 317 316 314 314 315 315
323 323 317 311 307 306 303 313 310 311 317 314 313 315 314 317 317 317 317 317 316 316 317 315 317 317 314 311 311 312 313 313 312 313 320 320 318 316 317 317 316 315 316 316 316
322 322 323 315 308 305 310 313 313 314 315 312 314 316 316 316 317 315 317 317 317 317 314 312 315 315 313 311 313 312 314 313 313 315 319 319 319 317 318 317 316 317 316 316 317
319 322 322 323 311 307 306 313 315 315 313 311 314 316 315 314 314 313 315 313 315 314 312 311 312 313 313 312 313 312 313 313 315 315 317 316 317 318 317 316 314 316 315 318 319
317 318 322 322 307 305 310 314 317 317 308 308 317 317 314 314 315 314 315 313 312 314 311 311 311 312 311 312 311 313 311 314 316 315 319 315 323 315 318 315 315 315 318 319 318
316 317 318 321 318 307 309 312 318 312 312 312 316 315 314 315 314 314 313 311 312 313 311 314 311 312 312 311 310 310 313 316 315 316 320 319 318 315 315 317 317 317 320 318 318
310 311 315 319 312 307 306 315 316 311 311 315 315 317 316 316 315 313 313 311 310 312 311 311 310 310 309 311 311 314 317 314 315 318 323 320 318 317 317 318 319 318 320 319 319
304 309 311 315 308 307 308 314 317 314 312 316 316 315 315 314 315 314 313 312 312 313 313 312 311 311 311 311 312 312 315 314 313 316 320 317 318 317 315 320 318 320 320 319 318
305 305 309 314 316 318 310 318 316 312 312 316 315 314 316 314 314 313 312 312 310 310 310 312 313 311 311 308 310 314 312 310 304 308 310 315 319 316 318 317 316 318 319 318 318
305 306 311 314 315 317 311 323 311 309 311 317 314 315 314 313 313 312 310 311 310 308 311 311 313 309 309 313 312 315 316 312 312 312 313 315 316 311 320 318 317 319 318 318 318
307 306 307 308 314 311 309 311 315 313 317 314 317 315 315 312 312 311 310 310 313 308 309 310 312 309 309 312 312 312 312 318 312 313 314 311 314 313 312 312 317 319 318 318 317
306 306 311 313 315 310 312 306 307 313 316 314 316 316 313 312 311 311 312 311 311 309 308 307 308 309 309 309 312 316 316 310 313 313 315 313 310 308 310 315 318 317 316 318 316
305 304 309 313 314 309 310 310 306 309 309 315 313 314 312 311 311 311 312 310 309 308 309 306 305 307 308 308 309 311 313 311 310 312 312 310 312 312 311 314 316 316 316 317 314
305 302 305 309 312 311 309 312 310 305 307 311 315 313 311 311 313 310 310 310 309 308 308 307 307 310 311 309 309 310 308 308 305 307 311 313 310 311 314 315 314 315 316 317 314
304 305 303 308 308 310 312 312 313 307 305 306 311 312 312 312 310 311 311 309 309 309 314 310 306 309 312 311 308 309 308 306 306 306 306 311 312 311 314 315 314 312 312 316 315
303 304 302 307 307 309 312 312 313 312 307 305 308 307 312 312 312 312 309 309 312 319 308 308 310 308 309 311 310 308 308 306 306 305 308 308 310 308 312 314 313 313 311 315 315
304 304 302 303 304 308 309 309 313 313 310 306 306 308 308 312 312 312 309 308 310 313 308 306 310 310 311 310 310 313 311 307 305 305 305 306 306 305 307 310 311 312 311 312 315
302 303 303 303 303 306 310 310 311 310 312 308 306 305 306 306 309 309 308 308 309 309 307 307 307 307 310 310 309 311 309 310 308 304 306 307 307 304 311 313 313 312 311 312 311
Wind_Speed
11 12 14 15 14 15 17 16 13 10 8 7 6 5 6 6 4 3 4 3 4 3 7 6 6 5 4 3 3 3 4 2 3 4 4 3 2 2 1 2 4 3 2 4 3
12 11 13 15 16 18 16 16 13 12 10 8 6 6 5 6 3 4 4 4 4 5 7 7 3 4 3 1 2 4 3 7 5 3 4 3 1 2 2 5 3 4 5 5 2
14 14 14 15 16 17 19 16 12 14 14 9 7 6 4 3 1 4 8 7 4 4 6 3 3 3 1 1 2 3 4 4 4 7 4 2 2 1 2 4 2 7 7 7 7
11 13 13 14 16 19 19 17 14 15 14 11 7 4 2 1 3 3 9 6 4 3 4 4 3 4 2 2 2 1 5 4 4 4 3 3 1 2 4 2 5 6 4 4 9
13 14 15 15 15 18 23 20 17 17 12 11 7 3 2 2 6 6 10 7 3 2 2 3 2 3 3 3 1 3 3 4 7 6 6 3 3 3 4 2 5 6 9 8 7
15 15 17 17 16 16 18 23 22 14 11 9 6 5 2 2 1 9 10 7 5 3 2 3 4 5 3 2 2 3 4 6 5 4 3 5 2 6 3 3 5 5 7 5 5
18 17 17 20 21 19 18 19 20 15 9 6 6 4 1 7 2 10 9 6 3 4 3 2 3 3 3 1 2 2 4 7 2 3 1 5 1 4 1 1 5 7 6 5 5
20 20 20 20 22 23 21 19 13 10 7 2 6 2 5 2 7 12 11 5 4 5 3 3 3 3 1 1 5 3 4 4 4 4 2 3 7 4 2 2 4 7 7 6 5
22 22 21 22 21 22 23 21 7 1 4 1 2 2 6 1 5 15 12 5 4 4 3 5 3 3 3 3 4 5 2 3 7 2 3 4 5 4 3 1 4 6 7 9 11
21 23 24 23 22 23 24 11 0 1 2 4 5 3 2 5 5 10 12 8 3 5 3 4 4 2 3 4 3 4 2 4 5 4 1 4 9 5 3 1 3 6 7 7 8
21 22 24 25 25 24 23 3 4 2 3 8 5 4 1 2 7 6 9 9 4 4 3 2 3 6 8 7 3 2 3 5 5 5 3 3 6 6 4 2 4 6 7 9 11
18 20 24 24 24 25 10 2 2 2 6 10 10 8 6 1 2 3 13 6 5 5 4 4 6 10 4 4 4 3 3 5 5 3 1 5 8 5 3 1 4 7 10 11 9
18 18 20 23 24 9 9 5 8 2 2 7 6 7 6 9 6 7 10 6 4 6 6 7 5 3 6 3 3 3 4 4 5 5 0 5 6 3 2 2 4 7 8 7 11
19 18 16 22 7 16 6 10 5 3 4 7 4 7 8 6 4 7 13 7 2 8 6 6 5 6 4 4 6 3 3 3 2 4 2 3 4 4 2 6 4 8 11 10 14
18 19 16 11 14 4 7 16 4 1 4 4 4 3 3 11 7 2 4 4 8 6 6 6 5 5 4 6 7 6 1 1 1 2 3 2 2 6 3 4 6 9 10 13 13
20 21 18 10 6 8 10 6 4 4 9 3 6 6 5 1 2 4 3 5 3 5 1 5 2 5 7 2 3 3 2 5 4 2 2 2 3 5 3 3 4 7 10 13 13
22 21 19 11 4 3 13 3 0 6 2 6 5 7 4 5 4 6 6 5 6 5 5 1 3 2 3 3 1 3 5 3 4 3 5 1 2 8 3 2 3 5 9 9 10
24 25 23 18 16 12 2 3 7 6 9 3 2 5 7 5 5 5 7 6 4 4 3 6 3 7 5 5 7 2 5 5 5 2 4 3 4 4 1 4 1 3 5 6 7
24 21 15 14 12 14 3 7 9 7 5 8 3 3 5 4 5 4 8 7 9 10 8 5 4 1 2 3 5 3 2 4 6 2 3 3 6 5 1 3 2 5 5 4 5
16 14 14 23 13 8 3 13 10 7 2 4 13 7 10 8 7 6 9 6 7 10 4 7 3 1 2 4 5 3 7 3 3 1 3 4 4 5 4 4 3 2 2 3 3
8 4 5 9 18 2 6 11 7 11 3 7 9 7 7 9 10 6 5 3 5 7 5 5 4 2 3 6 8 3 2 4 4 4 4 2 5 6 5 4 4 5 3 2 3
3 3 6 17 5 2 7 7 4 4 16 8 2 6 9 10 8 9 10 5 8 10 10 6 5 4 6 1 4 4 6 6 4 4 2 3 6 1 5 5 5 5 5 3 3
3 3 9 12 9 8 4 13 15 10 14 4 6 7 4 9 4 7 7 1 8 8 11 9 2 3 5 4 1 4 5 4 5 3 6 5 5 1 2 4 6 5 5 4 5
3 3 3 5 10 10 12 14 8 12 19 6 5 2 3 4 1 7 4 2 5 5 5 7 4 6 7 5 5 5 6 6 6 4 5 6 3 6 7 8 7 6 6 6 5
4 6 5 5 13 19 17 6 20 15 16 8 6 16 7 5 3 5 3 3 3 10 3 5 6 5 5 2 4 5 6 9 9 5 7 6 9 8 12 13 12 8 7 7 8
5 3 3 11 16 15 22 23 16 15 16 23 13 17 8 7 7 8 8 5 7 5 7 1 3 4 2 5 7 5 7 10 10 4 8 4 8 8 1 7 7 9 9 8 8
13 13 5 10 12 14 6 18 21 18 13 21 26 17 17 20 6 7 5 7 8 12 8 8 6 4 4 3 5 5 12 15 6 6 10 9 10 6 4 9 12 12 12 13 10
Wind_Direction
359 353 350 351 350 346 340 335 324 319 316 309 300 301 303 301 291 192 233 153 133 59 58 63 73 62 56 77 81 112 67 203 238 181 255 256 2 278 5 314 325 345 254 273 308
350 353 353 349 347 346 343 337 324 320 310 296 288 288 294 301 251 231 175 152 131 59 53 49 59 54 27 86 44 89 124 218 216 205 219 271 262 301 18 337 295 317 325 341 307
348 353 353 351 346 346 342 336 324 322 311 291 278 280 296 294 342 230 165 149 126 60 42 48 91 109 77 103 176 161 189 208 251 234 223 227 274 112 13 328 300 285 310 352 27
347 348 349 350 347 343 344 340 326 322 312 290 268 269 305 162 200 177 163 157 143 59 47 91 80 110 146 208 165 236 238 203 262 240 163 225 298 33 87 4 330 18 3 45 35
342 344 343 347 348 347 343 338 328 321 310 287 258 230 165 64 251 172 164 164 139 97 93 114 104 131 190 203 226 189 258 212 253 272 239 181 236 209 109 34 18 18 41 29 19
337 340 338 339 341 343 346 339 329 320 306 287 240 192 155 192 236 175 174 169 145 150 136 125 169 187 183 224 170 230 272 279 272 294 267 160 163 137 146 28 48 41 34 12 0
337 335 336 337 337 337 343 341 329 315 307 279 206 182 107 230 142 174 178 176 177 176 136 165 148 134 142 228 306 283 327 331 278 311 355 143 203 171 27 32 21 15 9 346 313
336 335 333 334 336 334 334 339 327 312 314 269 179 209 237 238 222 188 185 166 180 190 123 139 133 109 169 329 16 44 55 4 279 352 329 125 254 150 65 101 360 8 350 338 318
334 333 332 331 331 333 331 334 320 277 304 261 261 189 261 268 189 198 197 149 163 168 139 119 77 92 37 73 12 10 253 267 315 333 223 196 260 152 165 102 23 2 348 338 325
334 332 332 330 332 331 330 329 255 278 170 273 268 332 264 226 175 187 193 172 123 105 53 59 50 64 46 81 234 246 293 268 249 283 256 252 262 217 204 211 23 358 324 302 303
330 332 332 331 331 333 329 313 21 39 174 206 239 226 266 207 162 165 171 132 105 80 162 19 77 220 223 198 175 178 207 249 253 258 293 253 280 245 215 284 4 312 313 322 301
317 325 329 328 330 327 328 333 203 214 298 230 234 281 258 186 136 154 158 137 136 193 122 30 238 234 210 174 192 207 243 263 284 256 237 319 282 257 220 241 85 359 325 308 317
330 311 323 325 329 332 320 335 329 254 226 285 186 207 218 160 212 211 148 139 159 158 180 173 229 98 159 183 188 235 207 233 231 327 276 339 299 346 322 85 51 342 280 328 326
336 336 319 323 323 336 315 342 327 294 16 267 214 255 167 146 231 200 173 142 152 200 170 229 253 173 175 207 153 276 223 242 276 35 258 40 287 303 294 316 50 311 355 349 343
341 332 331 322 306 309 317 333 323 21 280 210 170 142 235 160 144 186 165 71 162 175 120 247 181 165 178 217 166 220 29 310 282 180 38 338 68 268 358 326 14 329 342 355 347
326 332 329 313 271 275 329 332 317 59 235 217 145 153 141 171 145 118 117 63 127 136 140 230 253 169 200 142 174 122 115 47 54 80 8 277 125 282 291 290 346 305 345 359 355
323 322 318 291 281 235 340 80 94 206 278 205 196 146 167 188 168 144 157 158 155 134 219 233 219 193 139 109 68 87 63 339 3 10 223 226 70 246 261 155 197 328 345 355 350
322 313 300 278 266 270 230 81 211 207 215 76 104 105 168 158 215 173 134 189 224 110 120 171 262 174 185 183 179 167 154 153 211 213 266 302 241 258 176 144 285 18 8 10 5
321 322 290 274 264 237 217 202 216 180 214 152 71 124 192 213 176 148 186 191 194 172 175 146 268 118 127 134 129 170 182 158 106 22 32 254 290 301 306 266 81 38 38 26 8
322 306 268 261 240 189 152 236 220 192 225 172 202 178 184 186 170 186 181 203 192 183 154 198 109 211 149 106 43 160 155 85 12 128 275 285 275 241 280 279 128 125 48 55 33
313 295 276 211 181 127 205 223 232 261 158 188 215 187 203 170 176 194 210 265 179 157 125 136 105 241 130 206 172 141 173 63 116 138 183 287 264 210 215 217 197 166 133 6 45
230 253 209 178 201 195 199 217 281 259 257 259 219 210 180 175 175 195 203 240 163 144 157 191 133 167 198 234 176 170 171 152 128 212 170 153 273 320 205 214 189 161 149 134 92
247 241 231 222 236 235 259 235 237 250 252 234 242 202 196 173 184 195 187 352 165 158 160 179 181 96 7 356 308 207 190 135 111 96 193 145 259 155 192 219 230 180 164 144 135
263 264 247 198 245 267 235 229 220 224 256 255 319 233 168 188 248 173 155 112 173 167 143 116 142 165 186 187 141 192 177 169 139 146 177 221 244 236 225 218 221 206 184 163 169
211 233 213 253 226 229 235 235 223 208 241 266 207 247 244 178 123 145 129 122 54 148 103 139 192 169 225 166 151 184 174 176 196 182 184 223 203 225 214 209 207 197 174 178 179
249 199 247 253 264 267 232 250 238 226 235 216 236 225 248 227 193 188 150 194 182 193 155 155 181 150 229 205 204 228 218 194 213 207 265 257 258 219 228 124 165 190 179 193 181
235 246 248 246 256 254 256 230 232 228 222 239 223 234 247 258 298 285 201 164 176 159 162 148 136 131 236 146 131 282 221 202 184 194 190 213 226 163 174 196 197 194 192 196 193